Weather History for Spirit of St Louis, MO

Change the Weather History Date:

Wednesday, March 27, 2013

  Actual Average Record
Temperature  
Mean Temperature 32 °F -  
Max Temperature 46 °F 59 °F 84 °F (2012)
Min Temperature 19 °F 36 °F 19 °F (2001)
Degree Days  
Heating Degree Days 32    
Moisture  
Dew Point 23 °F    
Average Humidity 68    
Maximum Humidity 92    
Minimum Humidity 34    
Precipitation  
Precipitation 0.00 in - - ()
Sea Level Pressure  
Sea Level Pressure 30.38 in    
Wind  
Wind Speed 1 mph (ENE)    
Max Wind Speed 7 mph    
Max Gust Speed -    
Visibility 10 miles    
Events      
Averages and records for this station are not official NWS values.
T = Trace of Precipitation, MM = Missing Value Source: NWS Daily Summary

Daily Weather History Graph

Daily Weather History Graph

Search for Another Location

Airport:

Trip Planner

Search our weather history database for the weather conditions in past years. The results will help you decide how hot, cold, wet, or windy it might be!

Date:

Astronomy

Mar. 27, 2013 Rise Set
Actual Time 6:54 AM CDT 7:21 PM CDT
Civil Twilight 6:28 AM CDT 7:48 PM CDT
Nautical Twilight 5:56 AM CDT 8:19 PM CDT
Astronomical Twilight 5:24 AM CDT 8:51 PM CDT
Moon 8:04 PM CDT (3/27) 6:46 AM CDT (3/27)
Length of Visible Light 13h 20m
Length of Day
12h 26m
Full, 100% of the Moon is Illuminated
Mar 27
Full
Apr 2
Last Quarter
Apr 10
New
Apr 18
First Quarter
Apr 25
Full

Hourly Weather History & Observations

Time (CDT) Temp. Windchill Dew Point Humidity Pressure Visibility Wind Dir Wind Speed Gust Speed Precip Events Conditions
12:54 AM 24.1 °F - 19.9 °F 84% 30.39 in 10.0 mi Calm Calm - N/A   Clear
1:54 AM 23.0 °F - 19.0 °F 85% 30.39 in 10.0 mi Calm Calm - N/A   Clear
2:54 AM 21.9 °F - 19.0 °F 89% 30.38 in 10.0 mi Calm Calm - N/A   Clear
3:54 AM 21.0 °F - 18.0 °F 88% 30.37 in 10.0 mi Calm Calm - N/A   Clear
4:54 AM 21.0 °F - 18.0 °F 88% 30.39 in 10.0 mi Calm Calm - N/A   Clear
5:54 AM 19.9 °F - 16.0 °F 85% 30.39 in 10.0 mi Calm Calm - N/A   Clear
6:54 AM 19.0 °F - 16.0 °F 88% 30.40 in 10.0 mi Calm Calm - N/A   Scattered Clouds
7:54 AM 21.0 °F - 19.0 °F 92% 30.42 in 10.0 mi Calm Calm - N/A   Scattered Clouds
8:54 AM 25.0 °F - 21.9 °F 88% 30.42 in 10.0 mi Calm Calm - N/A   Partly Cloudy
9:54 AM 32.0 °F - 26.1 °F 79% 30.43 in 10.0 mi Calm Calm - N/A   Partly Cloudy
10:54 AM 39.0 °F 36.8 °F 23.0 °F 53% 30.42 in 10.0 mi North 3.5 mph - N/A   Partly Cloudy
11:54 AM 39.9 °F - 23.0 °F 51% 30.42 in 10.0 mi Calm Calm - N/A   Scattered Clouds
12:54 PM 41.0 °F - 23.0 °F 49% 30.42 in 10.0 mi Calm Calm - N/A   Scattered Clouds
1:54 PM 43.0 °F 41.3 °F 23.0 °F 45% 30.40 in 10.0 mi Variable 3.5 mph - N/A   Mostly Cloudy
2:54 PM 45.0 °F 41.8 °F 21.9 °F 40% 30.37 in 10.0 mi WNW 5.8 mph - N/A   Mostly Cloudy
3:54 PM 46.9 °F - 19.9 °F 34% 30.34 in 10.0 mi Calm Calm - N/A   Mostly Cloudy
4:54 PM 46.0 °F - 21.0 °F 37% 30.33 in 10.0 mi Calm Calm - N/A   Mostly Cloudy
5:54 PM 43.0 °F 40.3 °F 26.1 °F 51% 30.33 in 10.0 mi East 4.6 mph - N/A   Mostly Cloudy
6:54 PM 39.9 °F 35.1 °F 27.0 °F 60% 30.33 in 10.0 mi ENE 6.9 mph - N/A   Overcast
7:54 PM 39.9 °F 37.8 °F 28.0 °F 63% 30.32 in 10.0 mi East 3.5 mph - N/A   Overcast
8:54 PM 39.0 °F - 28.0 °F 65% 30.34 in 10.0 mi Calm Calm - N/A   Mostly Cloudy
9:54 PM 37.9 °F 34.4 °F 28.0 °F 68% 30.35 in 10.0 mi East 4.6 mph - N/A   Overcast
10:54 PM 37.9 °F - 30.9 °F 76% 30.35 in 10.0 mi Calm Calm - N/A   Overcast
11:54 PM 37.9 °F 34.4 °F 28.9 °F 70% 30.35 in 10.0 mi East 4.6 mph - 0.00 in   Overcast